User: anonymous   Login
Location: ????????
(60.5616°N, 46.8254°E)
Time: 17:43:43
(UTC+00:00)
Language:

Cosmos 1844 Rocket - Orbit

View from above orbital plane
View from above orbital plane
View from above satellite
View from above satellite

Ground track
Ground track

The orbit data is extracted from the following two-line orbital elements,

1 17974U 87041B   20151.46116177 -.00000177 +00000-0 -63770-4 0  9994
2 17974 071.0061 157.9842 0014498 196.2181 274.1930 14.17262757709256
Epoch (UTC): 30 May 2020 11:04:04
Eccentricity: 0.0014498
inclination: 71.0061°
perigee height: 824 km
apogee height: 845 km
right ascension of ascending node: 157.9842°
argument of perigee: 196.2181°
revolutions per day: 14.17262757
mean anomaly at epoch: 274.1930°
orbit number at epoch: 70925

The dashed part of the orbit path shows where the satellite is in the earth's shadow,  

DLR